Regional Weather Roundup
Issued by NWS Sterling, VA

Home | Current Version | Previous Version | Text Only | Print | Product List | Glossary On
Versions: 1 2 3 4 5 6 7 8 9 10 11 12 13 14 15 16 17 18 19 20 21 22 23 24 25 26 27 28 29 30 31 32 33 34 35 36 37 38 39 40 41 42 43 44 45 46 47 48 49 50
000
ASUS41 KLWX 200910
RWRLWX

REGIONAL WEATHER ROUNDUP
NATIONAL WEATHER SERVICE BALTIMORE MD/WASHINGTON DC
500 AM EDT MON OCT 20 2014

Note: "FAIR" indicates few or no clouds below 12,000 feet
with no significant weather and/or obstructions to visibility.
 TC=TEMPERATURE CELSIUS

 * =Non NWS site. Station does not report precipitation (e.g. rain,
    snow, etc.), thunder, or fog.

DCZ001-MDZ009-015-VAZ040>042-051-053>054-201000-
WASHINGTON METRO

CITY           SKY/WX    TMP DP  RH WIND       PRES   REMARKS
WASHINGTON NAT MOCLDY    47  37  68 CALM      30.12S
DULLES         MOCLDY    36  35  96 CALM      30.11R
ANDREWS AFB    CLEAR     39  37  93 S1        30.11R
FT BELVOIR     PTCLDY    37  36  95 CALM      30.12R
QUANTICO       PTCLDY    41  38  89 NW9       30.13S
LEESBURG*      PTCLDY    37  37 100 CALM      30.11S
MANASSAS*      PTCLDY    37  37 100 CALM      30.12R
GAITHERSBURG*  CLEAR     36  34  93 CALM      30.14S

$$

MDZ006>007-011-014-201000-
BALTIMORE METRO

CITY           SKY/WX    TMP DP  RH WIND       PRES   REMARKS
BWI AIRPORT    PTCLDY    37  34  89 CALM      30.10S
MD SCIENCE CTR   N/A     45  35  68 MISG      30.11R
MARTIN STATE   CLEAR     39  37  93 CALM      30.12S
ANNAPOLIS      CLEAR     41  38  89 CALM      30.11R
FORT MEADE*    CLEAR     32  32 100 CALM      30.13S

$$

MDZ012-015-019>023-201000-
MARYLAND EASTERN SHORE

CITY           SKY/WX    TMP DP  RH WIND       PRES   REMARKS
OCEAN CITY     CLEAR     34  32  92 CALM      30.12S
SALISBURY      CLEAR     37  33  85 CALM      30.12S
BAY BRIDGE AP*   N/A     43  39  87 CALM      30.11S
EASTON*        CLEAR     41  41 100 CALM      30.15R

$$

MDZ017>025-201000-
SOUTHERN MARYLAND

CITY           SKY/WX    TMP DP  RH WIND       PRES   REMARKS
PATUXENT RIVER PTCLDY    38  36  92 SW5       30.11S
ST INIGOES     PTCLDY    38  35  89 CALM      30.11S
LEONARDTOWN*   NOT AVBL

$$

MDZ003>005-201000-
NORTH CENTRAL MARYLAND

CITY           SKY/WX    TMP DP  RH WIND       PRES   REMARKS
FREDERICK*     NOT AVBL
HAGERSTOWN APT PTCLDY    40  33  76 S5        30.07F
WESTMINSTER*   PTCLDY    37  36  93 CALM      30.08F

$$

MDZ501>502-201000-
WESTERN MARYLAND

CITY           SKY/WX    TMP DP  RH WIND       PRES   REMARKS
OAKLAND*       MOCLDY    36  36 100 SW5       30.03F
CUMBERLAND*    MOCLDY    36  36 100 CALM      30.12S

$$

VAZ025>031-201000-
SHENANDOAH VALLEY

CITY           SKY/WX    TMP DP  RH WIND       PRES   REMARKS
WINCHESTER*    PTCLDY    37  32  81 CALM      30.08S
FRONT ROYAL*   FAIR      37  36  93 CALM      30.08S
LURAY*         FAIR      37  37 100 CALM      30.09S
NEW MARKET*    FAIR      35  34  96 CALM      30.09S
STAUNTON*      PTCLDY    33  31  91 CALM      30.11R
WAYNESBORO*    FAIR      33  32  96 CALM      30.08S

$$

WVZ021-048>050-054>055-201000-
EASTERN WEST VIRGINIA PANHANDLE

CITY           SKY/WX    TMP DP  RH WIND       PRES   REMARKS
MARTINSBURG    PTCLDY    36  32  85 CALM      30.09S
PETERSBURG*    MOCLDY   N/A N/A N/A CALM      30.10S

$$

VAZ036>039-050-201000-
CENTRAL FOOTHILLS

CITY           SKY/WX    TMP DP  RH WIND       PRES   REMARKS
CHARLOTTESVILL PTCLDY    39  35  86 CALM      30.09S
CULPEPER*      PTCLDY    36  36 100 CALM      30.12R
ORANGE*        PTCLDY    36  36 100 CALM      30.11S
GORDONSVILLE*  FAIR      36  35  96 CALM      30.10R
WARRENTON*     FAIR      34  34 100 CALM      30.11R

$$

VAZ055>057-201000-
NORTH AND CENTRAL PIEDMONT

CITY           SKY/WX    TMP DP  RH WIND       PRES   REMARKS
FREDERICKSBRG* CLEAR     37  37 100 CALM      30.12R
STAFFORD*      CLEAR     33  33 100 CALM      30.16R

$$

NCZ024-NYZ072-PAZ021-071-VAZ022-071-201000-
OTHER REGIONAL OBSERVATIONS

CITY           SKY/WX    TMP DP  RH WIND       PRES   REMARKS
NEW YORK CITY  MOCLDY    43  29  57 VRB5      30.11R
PHILADELPHIA   PTCLDY    41  32  70 S3        30.12R
PITTSBURGH     CLOUDY    43  36  76 S3        30.03F
ROANOKE        PTCLDY    40  36  86 SE3       30.11F
RICHMOND       PTCLDY    41  37  86 CALM      30.12R
RALEIGH        PTCLDY    43  40  89 CALM      30.13S

$$

ANZ530>537-201000-
MARINE OBSERVATIONS

STATION/POSITION TIME  TEMP    WIND        PRES
                       AIR SEA DIR/SP/G
                 (UTC) (F)     (DEG/KT/KT) (MB)
THOMAS PT LIGHT  0900   53 64  330/  1/  2 1020.5R
BALT KEY BRIDGE  0900   49     280/  3/  4 1019.2S
COVE POINT       0900   52     270/  2/  4 1019.6R
LEWISETTA        0900   47 62  230/  4/  5 1019.5S
SOLOMONS ISLAND  0900      65                N/A
PINEY POINT      0900           CALM  /  1   N/A

$$




USA.gov is the U.S. government's official web portal to all federal, state and local government web resources and services.